Tracking 25723 objects as of 26-Jun-2022
HD Live streaming from Space Station
objects crossing your sky now

DMSP 5D-2 F13 DEB

Track DMSP 5D-2 F13 DEB now!
10-day predictions


NORAD ID: 40581
Int'l Code: 1995-015EQ
Perigee: 818.1 km
Apogee: 856.3 km
Inclination: 98.8 °
Period: 101.5 minutes
Semi major axis: 7208 km
RCS: Unknown
Launch date: March 24, 1995
Source: United States (US)
Launch site: AIR FORCE WESTERN TEST RANGE (AFWTR)

Note: This is SATELLITE DEBRIS
aabbcc
Your satellite tracking list
Your tracking list is empty




NASA's NSSDC Master Catalog

Two Line Element Set (TLE):
1 40581U 95015EQ  22176.30274979  .00001809  00000-0  89168-3 0  9990
2 40581  98.7996 197.6477 0026489 191.4893 168.5680 14.18602265373476
Source of the keplerian elements: AFSPC